Location: Malvern Link
(52.1333°N, 2.3000°W)
Time: 17:44:38
(UTC+00:00)

Envisat - Visible Passes

Search period start: 21 January 2022 00:00
Search period end: 31 January 2022 00:00
Orbit: 764 x 766 km, 98.2° (Epoch: 20 January)

Date Brightness Start Highest point End Pass type
(mag) Time Alt. Az. Time Alt. Az. Time Alt. Az.
21 Jan 5.1 04:06:17 10° NE 04:10:20 23° E 04:14:22 10° SE visible
21 Jan 2.9 05:44:44 10° N 05:49:45 61° WNW 05:54:45 10° SSW visible
21 Jan 4.7 07:25:33 10° NNW 07:27:49 13° NW 07:30:05 10° WNW visible
22 Jan 5.9 03:31:05 10° ENE 03:32:56 12° E 03:34:48 10° ESE visible
22 Jan 3.2 05:07:48 10° NNE 05:12:55 72° ESE 05:17:58 10° S visible
22 Jan 4.1 06:47:35 10° N 06:51:27 22° WNW 06:55:19 10° WSW visible
23 Jan 4.4 04:31:09 10° NNE 04:35:52 36° E 04:40:32 10° SSE visible
23 Jan 3.4 06:10:12 10° N 06:14:55 39° WNW 06:19:37 10° SW visible
23 Jan 5.9 17:32:32 10° SW 17:35:50 17° W 17:39:09 10° NW visible
24 Jan 5.4 03:55:00 10° NE 03:58:36 19° E 04:02:12 10° SE visible
24 Jan 2.8 05:33:05 10° NNE 05:38:11 74° WNW 05:43:15 10° SSW visible
24 Jan 4.5 07:13:31 10° NNW 07:16:24 15° NW 07:19:17 10° W visible
25 Jan 3.5 04:56:14 10° NNE 05:01:17 58° E 05:06:17 10° S visible
25 Jan 3.9 06:35:48 10° N 06:39:59 26° WNW 06:44:10 10° WSW visible
25 Jan 6.4 18:00:44 10° W 18:01:32 10° W 18:02:21 10° WNW visible
26 Jan 4.7 04:19:42 10° NNE 04:24:10 30° E 04:28:37 10° SSE visible
26 Jan 3.2 05:58:31 10° N 06:03:24 47° WNW 06:08:15 10° SW visible
26 Jan 5.8 17:20:18 10° SW 17:24:06 21° W 17:27:56 10° NW visible
27 Jan 5.7 03:43:48 10° NE 03:46:51 16° E 03:49:53 10° ESE visible
27 Jan 2.9 05:21:29 10° NNE 05:26:37 89° W 05:31:42 10° SSW visible
27 Jan 4.4 07:01:35 10° NNW 07:04:58 18° NW 07:08:20 10° W visible
28 Jan 3.9 04:44:42 10° NNE 04:49:38 47° E 04:54:32 10° S visible
28 Jan 3.7 06:24:03 10° N 06:28:30 31° WNW 06:32:56 10° WSW visible
28 Jan 6.1 17:47:24 10° WSW 17:49:45 13° W 17:52:05 10° WNW visible
29 Jan 5.0 04:08:17 10° NE 04:12:28 25° E 04:16:36 10° SE visible
29 Jan 3.0 05:46:50 10° N 05:51:50 57° WNW 05:56:48 10° SSW visible
30 Jan 5.9 03:32:53 10° ENE 03:35:05 13° E 03:37:17 10° ESE visible
30 Jan 3.1 05:09:53 10° NNE 05:15:00 76° ESE 05:20:05 10° S visible
30 Jan 4.2 06:49:44 10° N 06:53:31 21° WNW 06:57:17 10° WSW visible
